STARLINK-4692 (53603 NORAD) Tracking and Keplerian Element Data

This shows tracking and keplerian element data for the satellite.

Feedback or suggestion? Click here.




ElementValue
Catalog53603
NameSTARLINK-4692
Epoch Orbit130
Epoch Day324.91667824
Epoch Year2022
RAAN247.8826
Inclination53.2161
Eccentricity0.0001758
Argument of Perigee58.7645
Mean Anonmoly187.8121
Mean Motion15.08844999
Decay Rate-0.00038301
L11 53603U 22104R 22324.91667824 -.00038301 00000+0 -24009-2 0 9995
L22 53603 53.2161 247.8826 0001758 58.7645 187.8121 15.08844999 1309



Live tracking and technical data element details for STARLINK-4692 (NORAD 53603). STARLINK-4692 can be tracked NOW for your location showing map with azimuth and elevation plus other details from your city location.







IsCatalogInMostPopularTable: catalog: 53603, numindb: 2
Update: records affected: 1



GetName: 53603 STARLINK-4692

Hit Count: updated at: Thu, 08 Dec 2022 09:03:31 GMT